World > North America > United States > Maryland
Hourly Weather in Annapolis, MarylandAnnapolis, Maryland Hourly Weather

Annapolis, MD Hourly Weather

Hourly Weather Annapolis, MarylandHourly Weather in Annapolis, MD
Lat: 38.97N, Lon: 76.5W  ICAO: KNAK
Web Search
Annapolis Weather Warning NWS WEATHER ALERT FOR THE ANNAPOLIS, MD AREA - WIND ADVISORY Issued: 709 PM EST Mon Dec 6 2021 Annapolis Weather Warning  

If you are on your PC, you can easily pass this page to your phone by scanning the QR Code near the bottom with your camera.

Feedback

Annapolis Hourly Weather

36 Hour Weather Scroll   °F Click to change Annapolis hourly weather to Imperial units.Click to change Annapolis hourly weather to Metric units. °C
Currently, Overcast, temperature is 56°F13°C, dew point 50°F10°C, humidity 81%. Wind direction is N at 0 mph0 km/h with visibility of 9.00 mi14 km. Barometric pressure is 29.71 in1006 mb.

Dec 06
7:00 PM

Dec 06
8:00 PM

Dec 06
9:00 PM

Dec 06
10:00 PM

Dec 06
11:00 PM

Dec 07
MIDNIGHT

Dec 07
1:00 AM

Dec 07
2:00 AM

Dec 07
3:00 AM

Dec 07
4:00 AM

Dec 07
5:00 AM

Dec 07
6:00 AM

Dec 07
7:00 AM

Dec 07
8:00 AM

Dec 07
9:00 AM

Dec 07
10:00 AM

Dec 07
11:00 AM

Dec 07
NOON

Dec 07
1:00 PM

Dec 07
2:00 PM

Dec 07
3:00 PM

Dec 07
4:00 PM

Dec 07
5:00 PM

Dec 07
6:00 PM

Dec 07
7:00 PM

Dec 07
8:00 PM

Dec 07
9:00 PM

Dec 07
10:00 PM

Dec 07
11:00 PM

Dec 08
MIDNIGHT

Dec 08
1:00 AM

Dec 08
2:00 AM

Dec 08
3:00 AM

Dec 08
7:00 AM

Dec 08
8:00 AM

Dec 08
9:00 AM
Mostly Cloudy Mostly Cloudy Mostly Cloudy Mostly Cloudy Mostly Cloudy Cloudy Cloudy Cloudy Cloudy Cloudy Cloudy Cloudy Cloudy Cloudy Cloudy Cloudy Cloudy Cloudy Cloudy Cloudy Cloudy Cloudy Cloudy Cloudy Cloudy Cloudy Mostly Cloudy Mostly Cloudy Mostly Cloudy Clear Clear Clear Clear Clear Clear Mostly Clear
Mostly Cloudy Mostly Cloudy Mostly Cloudy Mostly Cloudy Mostly Cloudy Cloudy Cloudy Cloudy Cloudy Cloudy Cloudy Cloudy Cloudy Cloudy Cloudy Cloudy Cloudy Cloudy Cloudy Cloudy Cloudy Cloudy Cloudy Cloudy Cloudy Cloudy Mostly Cloudy Mostly Cloudy Mostly Cloudy Clear Clear Clear Clear Clear Clear Mostly Clear
37°F3°C 37°F3°C 36°F2°C 36°F2°C 36°F2°C 37°F3°C 37°F3°C 37°F3°C 37°F3°C 37°F3°C 37°F3°C 36°F2°C 36°F2°C 36°F2°C 36°F2°C 36°F2°C 36°F2°C 36°F2°C 36°F2°C 36°F2°C 37°F3°C 37°F3°C 37°F3°C 36°F2°C 36°F2°C 36°F2°C 37°F3°C 37°F3°C 36°F2°C 36°F2°C 35°F2°C 34°F1°C 34°F1°C 33°F1°C 35°F2°C 38°F3°C
- - - - - - - Snow Snow Snow Snow Snow Snow Snow Snow Snow Snow Snow Snow Snow Rain Rain Rain Rain Rain - - - - - - - - - - -
1% 0% 0% 0% 0% 0% 0% 44% 44% 44% 44% 44% 44% 79% 79% 79% 79% 79% 79% 47% 47% 47% 47% 47% 47% 8% 8% 8% 8% 8% 8% 0% 0% 0% 0% 0%
19°F-7°C 21°F-6°C 24°F-4°C 26°F-3°C 27°F-3°C 28°F-2°C 29°F-2°C 29°F-2°C 30°F-1°C 30°F-1°C 30°F-1°C 31°F-1°C 31°F-1°C 31°F-1°C 31°F-1°C 31°F-1°C 31°F-1°C 30°F-1°C 30°F-1°C 31°F-1°C 31°F-1°C 32°F0°C 32°F0°C 33°F1°C 33°F1°C 33°F1°C 32°F0°C 32°F0°C 31°F-1°C 29°F-2°C 28°F-2°C 27°F-3°C 27°F-3°C 26°F-3°C 26°F-3°C 26°F-3°C
48% 52% 61% 67% 69% 70% 73% 73% 76% 76% 76% 82% 82% 82% 82% 82% 82% 79% 79% 82% 79% 82% 82% 89% 89% 89% 82% 82% 82% 75% 75% 75% 75% 75% 69% 62%
NNE NE E ESE ESE ESE ESE ESE SE SE SE SE SE SE ESE ESE ESE ESE ESE E E E S SSW NNW NW NW NW NW NW NW NW NW NW SSW SSE
1 mph 1 mph 1 mph 1 mph 1 mph 2 mph 2 mph 2 mph 2 mph 2 mph 2 mph 2 mph 2 mph 2 mph 3 mph 3 mph 3 mph 4 mph 4 mph 4 mph 3 mph 3 mph 3 mph 2 mph 2 mph 2 mph 4 mph 4 mph 4 mph 4 mph 4 mph 4 mph 3 mph 3 mph 3 mph 6 mph
10 mi16 km 10 mi16 km 10 mi16 km 10 mi16 km 10 mi16 km 10 mi16 km 10 mi16 km 10 mi16 km 10 mi16 km 10 mi16 km 10 mi16 km 6 mi10 km 6 mi10 km 5 mi8 km .75 mi1 km .5 mi1 km .5 mi1 km .5 mi1 km .5 mi1 km .75 mi1 km .75 mi1 km 3 mi5 km 5 mi8 km 5 mi8 km 6 mi10 km 6 mi10 km 10 mi16 km 10 mi16 km 10 mi16 km 10 mi16 km 10 mi16 km 10 mi16 km 10 mi16 km 10 mi16 km 10 mi16 km 10 mi16 km
Hour (EST)
Weather
Clouds
Temperature
Precip. Type
POP
Dewpoint
Humidity
Wind Direction
Wind Speed
Visibility
POP = Probability of Precipitation. ** Indicates missing data/values from model statistics.

24 Hour Forecast

Tonight - Mostly cloudy with rain showers likely this evening, then mostly clear after midnight. Lows in the lower 30s. Northwest winds 15 to 20 mph. Gusts up to 50 mph, Decreasing to 30 mph after midnight. Chance of rain 60%.
Tuesday - Mostly sunny. Much cooler with highs in the lower 40s. Northwest winds 5 to 10 mph.

48 Hour Forecast API Feed


Mon, Dec 6
7:00 pm

Mon, Dec 6
8:00 pm

Mon, Dec 6
9:00 pm

Mon, Dec 6
10:00 pm

Mon, Dec 6
11:00 pm

Tue, Dec 7
Midnight

Tue, Dec 7
1:00 am

Tue, Dec 7
2:00 am

Tue, Dec 7
3:00 am

Tue, Dec 7
4:00 am

Tue, Dec 7
5:00 am

Tue, Dec 7
6:00 am

Tue, Dec 7
7:00 am

Tue, Dec 7
8:00 am

Tue, Dec 7
9:00 am

Tue, Dec 7
10:00 am

Tue, Dec 7
11:00 am

Tue, Dec 7
Noon

Tue, Dec 7
1:00 pm

Tue, Dec 7
2:00 pm

Tue, Dec 7
3:00 pm

Tue, Dec 7
4:00 pm

Tue, Dec 7
5:00 pm

Tue, Dec 7
6:00 pm

Tue, Dec 7
7:00 pm

Tue, Dec 7
8:00 pm

Tue, Dec 7
9:00 pm

Tue, Dec 7
10:00 pm

Tue, Dec 7
11:00 pm

Wed, Dec 8
Midnight

Wed, Dec 8
1:00 am

Wed, Dec 8
2:00 am

Wed, Dec 8
3:00 am

Wed, Dec 8
4:00 am

Wed, Dec 8
5:00 am

Wed, Dec 8
6:00 am

Wed, Dec 8
7:00 am

Wed, Dec 8
8:00 am

Wed, Dec 8
9:00 am

Wed, Dec 8
10:00 am

Wed, Dec 8
11:00 am

Wed, Dec 8
Noon

Wed, Dec 8
1:00 pm

Wed, Dec 8
2:00 pm

Wed, Dec 8
3:00 pm

Wed, Dec 8
4:00 pm

Wed, Dec 8
5:00 pm

Wed, Dec 8
6:00 pm
OvercastOvercastPatchy Light DrizzlePartly CloudyPatchy Light DrizzleClearPatchy Rain PossibleClearClearClearClearClearClearSunnyPartly CloudyPartly CloudyPatchy Light SnowSunnySunnySunnySunnySunnyClearPartly CloudyPartly CloudyClearClearClearPartly CloudyPartly CloudyPartly CloudyPartly CloudyPartly CloudyPartly CloudyOvercastOvercastOvercastOvercastHeavy SnowHeavy SnowModerate Or Heavy SleetLight SleetLight SleetLight SleetFogMistLight Sleet ShowersOvercast
Overcast Overcast Patchy light drizzle Partly cloudy Patchy light drizzle Clear Patchy rain possible Clear Clear Clear Clear Clear Clear Sunny Partly cloudy Partly cloudy Patchy light snow Sunny Sunny Sunny Sunny Sunny Clear Partly cloudy Partly cloudy Clear Clear Clear Partly cloudy Partly cloudy Partly cloudy Partly cloudy Partly cloudy Partly cloudy Overcast Overcast Overcast Overcast Heavy snow Heavy snow Moderate sleet Light sleet Light sleet Light sleet Fog Mist Light sleet showers Overcast
63°F
17°C
53°F
12°C
49°F
10°C
48°F
9°C
44°F
7°C
42°F
6°C
40°F
5°C
39°F
4°C
38°F
4°C
38°F
3°C
37°F
3°C
36°F
2°C
36°F
2°C
35°F
2°C
35°F
2°C
36°F
2°C
37°F
3°C
38°F
3°C
38°F
4°C
39°F
4°C
40°F
5°C
41°F
5°C
40°F
5°C
38°F
3°C
38°F
4°C
38°F
3°C
38°F
3°C
37°F
3°C
37°F
3°C
37°F
3°C
37°F
3°C
37°F
3°C
37°F
3°C
37°F
3°C
37°F
3°C
37°F
3°C
38°F
3°C
36°F
2°C
33°F
0°C
33°F
0°C
34°F
1°C
35°F
2°C
35°F
2°C
35°F
2°C
35°F
2°C
36°F
2°C
36°F
2°C
36°F
2°C
52°F
11°C
46°F
8°C
38°F
4°C
30°F
-1°C
25°F
-4°C
24°F
-5°C
23°F
-5°C
22°F
-5°C
22°F
-6°C
22°F
-6°C
22°F
-6°C
21°F
-6°C
21°F
-6°C
21°F
-6°C
20°F
-7°C
19°F
-7°C
19°F
-7°C
20°F
-7°C
20°F
-7°C
19°F
-7°C
18°F
-8°C
18°F
-8°C
17°F
-8°C
16°F
-9°C
16°F
-9°C
16°F
-9°C
16°F
-9°C
16°F
-9°C
17°F
-8°C
19°F
-7°C
21°F
-6°C
22°F
-6°C
22°F
-5°C
22°F
-6°C
22°F
-6°C
22°F
-6°C
22°F
-6°C
24°F
-4°C
30°F
-1°C
32°F
-0°C
33°F
1°C
34°F
1°C
35°F
2°C
35°F
2°C
35°F
2°C
35°F
1°C
35°F
1°C
35°F
2°C
29.74 in
1007 mb
29.85 in
1011 mb
29.91 in
1013 mb
29.97 in
1015 mb
30.03 in
1017 mb
30.06 in
1018 mb
30.09 in
1019 mb
30.12 in
1020 mb
30.15 in
1021 mb
30.18 in
1022 mb
30.21 in
1023 mb
30.21 in
1023 mb
30.24 in
1024 mb
30.27 in
1025 mb
30.27 in
1025 mb
30.3 in
1026 mb
30.3 in
1026 mb
30.3 in
1026 mb
30.27 in
1025 mb
30.24 in
1024 mb
30.24 in
1024 mb
30.24 in
1024 mb
30.24 in
1024 mb
30.24 in
1024 mb
30.27 in
1025 mb
30.27 in
1025 mb
30.27 in
1025 mb
30.24 in
1024 mb
30.24 in
1024 mb
30.21 in
1023 mb
30.21 in
1023 mb
30.18 in
1022 mb
30.18 in
1022 mb
30.15 in
1021 mb
30.12 in
1020 mb
30.12 in
1020 mb
30.09 in
1019 mb
30.12 in
1020 mb
30.12 in
1020 mb
30.12 in
1020 mb
30.09 in
1019 mb
30.06 in
1018 mb
30.03 in
1017 mb
30 in
1016 mb
29.97 in
1015 mb
29.97 in
1015 mb
29.97 in
1015 mb
30 in
1016 mb
66%78%65%51%47%48%49%50%51%52%53%54%55%55%53%49%47%48%47%43%40%39%39%41%40%40%41%42%44%46%51%54%55%55%54%52%52%61%89%97%98%99%99%98%98%96%94%94%
WSWNWNWWNWNWNWNWNWNWNWNWNWNWNWNWNWNWNWNWNWNWNWNWNWWNWNWNNEESEESEESESESESESEESESESEESEESEEEESEESEENENNWNNWNW
15 mph
24 km/h
25 mph
40 km/h
22 mph
36 km/h
22 mph
35 km/h
20 mph
33 km/h
19 mph
30 km/h
17 mph
27 km/h
15 mph
25 km/h
14 mph
23 km/h
14 mph
23 km/h
13 mph
22 km/h
12 mph
20 km/h
12 mph
19 km/h
11 mph
18 km/h
11 mph
17 km/h
12 mph
19 km/h
12 mph
19 km/h
11 mph
18 km/h
10 mph
16 km/h
9 mph
15 km/h
8 mph
13 km/h
8 mph
12 km/h
5 mph
9 km/h
4 mph
7 km/h
3 mph
5 km/h
1 mph
1 km/h
1 mph
2 km/h
2 mph
3 km/h
3 mph
5 km/h
5 mph
8 km/h
7 mph
12 km/h
7 mph
12 km/h
8 mph
12 km/h
7 mph
11 km/h
8 mph
13 km/h
7 mph
11 km/h
8 mph
12 km/h
4 mph
6 km/h
4 mph
6 km/h
5 mph
9 km/h
7 mph
11 km/h
6 mph
10 km/h
5 mph
8 km/h
3 mph
4 km/h
2 mph
3 km/h
2 mph
4 km/h
5 mph
8 km/h
6 mph
10 km/h
0%0%71%0%70%0%71%0%0%0%0%0%0%0%0%0%0%0%0%0%0%0%0%0%0%0%0%0%0%0%0%0%0%0%0%0%0%0%0%0%0%58%82%81%81%0%67%0%
6 mi
10 km
6 mi
10 km
3 mi
5 km
6 mi
10 km
3 mi
5 km
6 mi
10 km
6 mi
10 km
6 mi
10 km
6 mi
10 km
6 mi
10 km
6 mi
10 km
6 mi
10 km
6 mi
10 km
6 mi
10 km
6 mi
10 km
6 mi
10 km
6 mi
10 km
6 mi
10 km
6 mi
10 km
6 mi
10 km
6 mi
10 km
6 mi
10 km
6 mi
10 km
6 mi
10 km
6 mi
10 km
6 mi
10 km
6 mi
10 km
6 mi
10 km
6 mi
10 km
6 mi
10 km
6 mi
10 km
6 mi
10 km
6 mi
10 km
6 mi
10 km
6 mi
10 km
6 mi
10 km
6 mi
10 km
6 mi
10 km
1 mi
2 km
1 mi
2 km
4 mi
6 km
6 mi
9 km
6 mi
9 km
6 mi
9 km
0 mi
0 km
1 mi
2 km
6 mi
10 km
6 mi
10 km

Day/Time
Weather
Condition
Temperature
Dew Point
Pressure
Humidity
Wind Direction
Wind Speed
Prob Precip %
Visibility
Prob Precip % = Probability of Precipitation.